sat.trackr.live / text

‹ back to catalog

STARLINK-37220

NORAD 68398 · 2026-063U

PAYLOAD ACTIVE UNKNOWN

§ Identity

Operator
Country
US
Launch date
2026-03-26
Launch site
AFWTR
Launch vehicle
Mass (kg)
RCS (m²)

Purposes: comms

External: N2YO · Heavens-Above · Gunter

§ Orbital elements

Epoch: 2026-09-20T03:34:19.464096Z

Period
93.91 min
Inclination
97.2865°
Eccentricity
0.0000983
Mean motion
15.33461678 rev/d
Perigee alt
464.8 km
Apogee alt
466.2 km
Semi-major
6,843.6 km
B*
4.7748e-4
RAAN
43.9989°
Arg perigee
284.9416°
Mean anomaly
75.1717°
Rev number
2,769

§ Raw data

STARLINK-372201 68398U 26063U   26263.14883639  .00015379  00000+0  47748-3 0  99992 68398  97.2865  43.9989 0000983 284.9416  75.1717 15.33461678 27695

JSON: /api/v1/satellites/68398 · /tle

For live sub-satellite position, see the globe view (requires WebGL).

§ Visibility from observer

Set your observer location to see the next 7 days of passes ≥ 10°. The values pass through the URL so the page stays shareable.

No JS? Fill the form by hand. The geolocation button needs JavaScript.